Regional Weather Roundup
Issued by NWS

Home | Current Version | Previous Version | Text Only | Print | Product List | Glossary On
Versions: 1 2 3 4 5 6 7 8 9 10 11 12 13 14 15 16 17 18 19 20 21 22 23 24 25 26 27 28 29 30 31 32 33 34 35 36 37 38 39 40 41 42 43 44 45 46 47 48 49 50
000
ASUS45 KBOI 011010
RWRID
WEATHER ROUNDUP FOR IDAHO
NATIONAL WEATHER SERVICE BOISE ID
300 AM MST SUN FEB 01 2015

NOTE: "FAIR" INDICATES FEW OR NO CLOUDS BELOW 12000 FEET
WITH NO SIGNIFICANT WEATHER AND/OR OBSTRUCTIONS TO VISIBILITY

IDZ012-014-011100-
SOUTHWEST IDAHO


CITY           SKY/WX    TMP DP  RH WIND       PRES   REMARKS
BOISE          PTCLDY    34  25  69 SE9       30.19S WCI  27
CALDWELL       PTCLDY    28  21  74 SE5       30.21S WCI  23
MOUNTAIN HOME  CLEAR     28  25  91 E7        30.20S WCI  20
$$

IDZ016-017-011100-
SOUTHCENTRAL IDAHO


CITY           SKY/WX    TMP DP  RH WIND       PRES   REMARKS
BURLEY         CLEAR     24  22  91 CALM      30.18S FOG
JEROME         CLEAR     28  25  88 NE12      30.20R WCI  18
TWIN FALLS     CLEAR     37  25  61 S14       30.18R WCI  28
$$

IDZ019>023-011100-
SOUTHEAST IDAHO


CITY           SKY/WX    TMP DP  RH WIND       PRES   REMARKS
IDAHO FALLS    CLOUDY    30  27  88 SW5       30.19S WCI  25
POCATELLO      CLOUDY    29  27  92 N5        30.20S WCI  24
REXBURG        CLOUDY    27  25  92 NE3       30.20R
$$

IDZ006-010-011-018-031-032-011100-
CENTRAL IDAHO MOUNTAINS


CITY           SKY/WX    TMP DP  RH WIND       PRES   REMARKS
MCCALL         CLOUDY    21  15  78 CALM      30.15F
HAILEY         PTCLDY    19  12  73 NW8       30.17R WCI   9
STANLEY          N/A      3  -3  76 CALM      30.20R
SALMON         CLOUDY    23  19  86 N3        30.26S
CHALLIS        CLEAR     18  14  84 N3        30.20R
$$

IDZ002-004-006-007-026-011100-
NORTHERN IDAHO


CITY           SKY/WX    TMP DP  RH WIND       PRES   REMARKS
LEWISTON       CLOUDY    33  30  88 SE3       30.26R
LOWELL           N/A     30  28  92 CALM      30.32F
COEUR D`ALENE  MOCLDY    28  27  93 E7        30.24S WCI  21
MULLAN PASS    MOCLDY    22  17  81 SE13      30.10S WCI  10
$$


USA.gov is the U.S. government's official web portal to all federal, state and local government web resources and services.